Location: El Chorro
(10.0985°N, 67.3542°W)
Time: 19:27:44
(UTC+00:00)

Cosmos 2263 - Pass Details

Date: 15 November 2025
Orbit: 828 x 865 km, 70.9° (Epoch: 06 December)

Event Time Altitude Azimuth Distance (km) Brightness Sun altitude
Rises 23:11:57 0° 183° (S) 3,371 7.6 -16.8°
Reaches altitude 10° 23:14:28 10° 177° (S) 2,442 6.8 -17.4°
Maximum altitude 23:19:49 46° 104° (ESE) 1,112 4.4 -18.7°
Enters shadow 23:21:52 32° 55° (NE) 1,397 4.8 -19.1°
